ZHONGXING-2C

Last updated on Sun Jul 06 2025 00:02:45 GMT+0000 (Coordinated Universal Time)

1 41021U 15063A 25186.59192743 -.00000308 00000+0 00000+0 0 9995 2 41021 0.1358 261.2916 0006538 299.8819 39.1869 1.00273713 35516
UTC large
Height (km)
Speed (km/s)
/
Latitude / Longitude
Inclination (degrees)
Orbital Period (minutes)
Azimuth
Elevation
Range (km)
Doppler Factor

Next 0 passes for location: London (51.5072 / 0.1276)

Sorry there are no passes over London.